Location: Newark
(49.9819°N, 3.0344°E)
Time: 19:14:32
(UTC+00:00)

ISS - Pass Details

Date: 29 January 2020
Orbit: 416 x 422 km, 51.6° (Epoch: 17 February)

Event Time Altitude Azimuth Distance (km) Brightness Sun altitude
Rises 19:50:07 0° 286° (WNW) 2,378 1.2 -31.1°
Reaches altitude 10° 19:52:14 10° 286° (WNW) 1,510 -0.1 -31.4°
Enters shadow 19:52:34 12° 286° (WNW) 1,377 -0.3 -31.5°
